Location: Wingville
(42.9917°N, 90.4915°W)
Time: 03:40:47
(UTC+00:00)

KKS-1 - Visible Passes

Search period start: 29 June 2022 00:00
Search period end: 09 July 2022 00:00
Orbit: 636 x 647 km, 98.2° (Epoch: 28 June)

Date Brightness Start Highest point End Pass type
(mag) Time Alt. Az. Time Alt. Az. Time Alt. Az.
29 Jun ? 03:06:29 10° NE 03:09:47 20° E 03:11:16 17° ESE visible
29 Jun ? 04:42:14 10° N 04:46:26 41° WNW 04:48:54 22° SW visible
30 Jun ? 03:29:50 10° NNE 03:33:55 34° E 03:35:31 26° SE visible
30 Jun ? 05:06:40 10° NNW 05:10:16 24° WNW 05:13:08 13° WSW visible
01 Jul ? 03:53:33 10° NNE 03:58:00 62° ESE 03:59:46 34° SSE visible
01 Jul ? 05:31:31 10° NNW 05:34:01 15° WNW 05:36:28 10° W visible
02 Jul ? 02:43:52 10° ENE 02:44:58 11° E 02:46:03 10° ESE visible
02 Jul ? 04:17:30 10° N 04:21:59 75° WNW 04:24:01 32° SSW visible
03 Jul ? 03:05:59 10° NE 03:09:13 19° E 03:10:38 17° ESE visible
03 Jul ? 04:41:41 10° N 04:45:54 42° WNW 04:48:14 23° SW visible
04 Jul ? 03:29:18 10° NNE 03:33:22 33° E 03:34:52 26° SE visible
04 Jul ? 05:06:05 10° NNW 05:09:43 25° WNW 05:12:29 14° WSW visible
05 Jul ? 03:53:00 10° NNE 03:57:26 60° E 03:59:05 36° SSE visible
05 Jul ? 05:30:55 10° NNW 05:33:27 15° WNW 05:35:59 10° W visible
06 Jul ? 02:43:34 10° ENE 02:44:23 10° E 02:45:12 10° E visible
06 Jul ? 04:16:57 10° N 04:21:25 76° WNW 04:23:18 34° SSW visible
07 Jul ? 03:05:27 10° NE 03:08:38 19° E 03:09:55 17° ESE visible
07 Jul ? 04:41:06 10° N 04:45:20 43° WNW 04:47:32 24° SW visible
08 Jul ? 03:28:45 10° NNE 03:32:47 32° E 03:34:08 27° SE visible
08 Jul ? 05:05:30 10° NNW 05:09:09 25° WNW 05:11:46 15° WSW visible
